Location: Gorze? G�rny
(49.8500°N, 19.5000°E)
Time: 05:24:40
(UTC+00:00)

Cosmos 2242 Rocket - Pass Details

Date: 13 May 2021
Orbit: 619 x 651 km, 82.5° (Epoch: 20 June)

Event Time Altitude Azimuth Distance (km) Brightness Sun altitude
Exits shadow 22:15:34 56° 206° (SSW) 748 3.6 -21.3°
Maximum altitude 22:16:27 80° 279° (W) 646 3.6 -21.4°
Drops below altitude 10° 22:20:58 10° 8° (N) 2,030 7.3 -21.4°
Sets 22:23:14 0° 10° (N) 2,949 8.4 -21.5°
